Regional Weather Roundup
Issued by NWS

Home | Current Version | Previous Version | Text Only | Print | Product List | Glossary On
Versions: 1 2 3 4 5 6 7 8 9 10 11 12 13 14 15 16 17 18 19 20 21 22 23 24 25 26 27 28 29 30 31 32 33 34 35 36 37 38 39 40 41 42 43 44 45 46 47 48 49 50
000
ASUS44 KJAN 072303
RWRMS

MISSISSIPPI HOURLY WEATHER ROUNDUP
NATIONAL WEATHER SERVICE JACKSON MS
600 PM CDT TUE JUL 07 2015

NOTE: "FAIR: INDICATES FEW OR NO CLOUDS BELOW 12,000 FEET WITH NO
SIGNIFICANT WEATHER AND/OR OBSTRUCTIONS TO VISIBILITY.

MSZ001>002-007>008-010>013-018>021-025>028-034>036-080000-
NORTHWEST MISSISSIPPI

CITY           SKY/WX    TMP DP  RH WIND       PRES   REMARKS
CLARKSDALE     FAIR      90  77  66 S9        30.00F HX 102
CLEVELAND      FAIR      87  81  83 S9        29.99F HX 103
GREENWOOD      SUNNY     90  74  59 S12       30.02F HX  99
GREENVILLE     SUNNY     92  78  63 S10       29.99F HX 107
OLIVE BRANCH   PTSUNNY   86  77  74 S15       30.01S HX  97
OXFORD         FAIR      82  68  61 S9G18     30.05S
TUNICA         MOCLDY    88  72  58 SW9       30.00F HX  94
$$

MSZ003>006-009-014>017-022>024-029>033-037>039-080000-
NORTHEAST MISSISSIPPI

CITY           SKY/WX    TMP DP  RH WIND       PRES   REMARKS
COLUMBUS AFB   MOSUNNY   91  73  56 SW6       30.04F HX  98
CORINTH        FAIR      86  70  58 SW7G14    30.01F HX  90
GOLDN TRIANGLE MOSUNNY   90  72  55 SW7       30.04F HX  96
STARKVILLE     FAIR      88  73  62 S3        30.05F HX  96
TUPELO         MOSUNNY   89  72  56 SW8       30.03F HX  96
$$

MSZ040-058-080000-
CENTRAL MISSISSIPPI

CITY           SKY/WX    TMP DP  RH WIND       PRES   REMARKS
JACKSON INTL   PTSUNNY   88  73  61 S13       30.05F HX  95
JACKSON HAWKNS LGT RAIN  82  71  69 W3        30.06S
MERIDIAN KEY   MOSUNNY   89  74  60 VRB3      30.07F HX  98
MERIDIAN NAS   PTSUNNY   81  70  69 S3        30.07F
VICKSBURG      SUNNY     90  75  61 S6        30.01F HX 100
$$

MSZ059>079-080000-
SOUTH MISSISSIPPI

CITY           SKY/WX    TMP DP  RH WIND       PRES   REMARKS
BROOKHAVEN       N/A     73  72  94 N3        30.09R
HATTIESBURG    SUNNY     92  72  51 S9        30.08F HX  99
MCCOMB         PTSUNNY   81  70  69 W3        30.08F
NATCHEZ        NOT AVBL
PINE BELT      MOSUNNY   90  57  33 SW5       30.10S
$$

MSZ080>082-080000-
COASTAL MISSISSIPPI

CITY           SKY/WX    TMP DP  RH WIND       PRES   REMARKS
BILOXI         SUNNY     87  75  67 S13       30.09F HX  97
PASCAGOULA     MOSUNNY   86  75  69 SW8       30.10F HX  95
GULFPORT       SUNNY     87  75  67 S12       30.09F HX  96
$$


USA.gov is the U.S. government's official web portal to all federal, state and local government web resources and services.